[ ตารางข้อมูล ] [ Min-Max ] [ วันนี้4 ] [ วันนี้2 ] [ เทียบ3วัน A ] [ เทียบ4วัน B ]   

วันนี้2   [ ◀ ช่วงเก่ากว่า ] [ ช่วงที่ 235 ] [ ช่วงใหม่กว่า ▶ ] [ ล่าสุด ]    [ 3 ชั่วโมง ] [ 6 ชั่วโมง ] [ 12 ชั่วโมง ] [ 24 ชั่วโมง ]   วันนี้2

อุณภูมิตู้ Knockdown4529  ราย 3 ชั่วโมง  ที่วัดได้ ในช่วงวันเวลา 07/04/2026 (03:12) ถึง 07/04/2026 (06:12) 
ความชื้นในตู้ Knockdown4529  ราย 3 ชั่วโมง  ที่วัดได้ ในช่วงวันเวลา 07/04/2026 (03:12) ถึง 07/04/2026 (06:12) 

 
DS18B20SHTC3 
IDDate d/m/Y & Timedata1
สูง
data2
ต่ำ
data3
นอก
temp
pcb
hum
pcb
Time
 9555  07/04/2026 06:11:23  27.7  27.8  25.7  27.6  71.0  06:11 
 9554  07/04/2026 06:06:42  27.7  27.8  25.8  27.7  70.9  06:06 
 9553  07/04/2026 06:02:00  27.7  27.9  25.7  27.6  71.0  06:02 
 9552  07/04/2026 05:57:18  27.8  27.9  25.5  27.7  71.0  05:57 
 9551  07/04/2026 05:52:37  27.8  27.9  25.6  27.6  71.0  05:52 
 9550  07/04/2026 05:47:55  27.8  27.9  25.7  27.7  71.0  05:47 
 9549  07/04/2026 05:43:12  27.8  27.9  25.6  27.8  71.0  05:43 
 9548  07/04/2026 05:38:31  27.8  27.9  25.7  27.7  71.0  05:38 
 9547  07/04/2026 05:33:49  27.8  28.0  25.7  27.8  70.9  05:33 
 9546  07/04/2026 05:29:07  27.9  28.0  25.8  27.6  70.9  05:29 
 9545  07/04/2026 05:24:25  27.9  28.0  25.7  27.9  71.0  05:24 
 9544  07/04/2026 05:19:43  27.9  28.0  25.5  27.9  71.0  05:19 
 9543  07/04/2026 05:15:01  27.9  28.1  25.6  27.9  70.9  05:15 
 9542  07/04/2026 05:10:20  27.9  28.1  25.6  27.8  70.9  05:10 
 9541  07/04/2026 05:05:37  27.9  28.1  25.6  28.0  71.0  05:05 
 9540  07/04/2026 05:00:56  28.0  28.1  25.7  28.1  71.1  05:00 
 9539  07/04/2026 04:56:13  28.0  28.1  25.8  27.9  70.9  04:56 
 9538  07/04/2026 04:51:31  28.0  28.1  26.0  27.9  71.0  04:51 
 9537  07/04/2026 04:46:49  28.1  28.2  26.2  27.9  70.9  04:46 
 9536  07/04/2026 04:42:07  28.1  28.2  26.3  28.1  71.0  04:42 
 9535  07/04/2026 04:37:25  28.1  28.2  26.2  28.0  71.0  04:37 
 9534  07/04/2026 04:32:44  28.1  28.2  26.0  28.1  70.9  04:32 
 9533  07/04/2026 04:28:02  28.1  28.2  26.1  28.0  71.0  04:28 
 9532  07/04/2026 04:23:20  28.1  28.2  26.0  28.1  71.0  04:23 

Data every 5 minute.


ใช้เวลาประมวลผล 0.00221 วินาที